Probability
3 10 19 29 32 32 32 35 35 42 45 45 39 45 58 58 55 55 55 55 48 52 55 55 52 55 52 52 48 52 55 55 58 58 61 55 52 58 45 32 35 39 45
3 16 26 32 29 29 29 29 32 39 42 35 35 48 52 52 48 48 55 52 48 39 48 52 45 45 45 45 48 48 45 45 55 48 52 52 52 48 32 32 39 39 39
3 13 16 26 29 29 29 29 29 29 35 29 35 39 39 45 42 42 42 48 42 35 32 39 39 32 32 29 39 42 42 39 42 45 42 42 39 39 39 35 39 35 35
3 10 16 26 29 26 23 26 29 32 23 29 32 42 39 35 39 35 32 32 35 35 35 23 23 26 26 29 29 32 29 32 35 32 29 26 26 26 35 35 39 42 39
6 10 16 19 23 29 26 26 32 32 29 23 29 35 29 32 35 32 42 39 35 39 32 26 26 32 35 35 35 29 26 32 26 29 26 32 42 35 39 42 39 35 35
6 13 23 32 29 32 26 29 29 32 29 19 26 26 29 32 35 32 29 35 35 32 32 29 29 26 29 19 19 16 19 23 19 19 29 29 35 42 35 39 39 35 32
3 13 13 35 29 32 29 29 29 26 26 26 29 26 26 35 29 29 35 29 26 29 13 13 19 19 19 19 16 16 23 23 10 16 23 23 29 29 29 29 29 29 26
3 10 16 29 39 35 32 26 23 26 26 26 26 26 26 29 23 26 26 19 19 19 10 16 13 13 13 16 19 13 13 16 6 10 13 19 26 23 26 29 32 32 29
3 13 16 10 13 26 29 26 26 26 26 26 26 26 23 19 19 16 16 19 19 19 13 13 10 10 6 10 16 10 10 19 10 10 6 13 13 16 19 23 26 29 29
3 10 13 3 13 16 16 23 23 16 19 23 19 19 19 19 10 16 13 13 16 13 10 10 6 0 3 3 3 6 10 13 10 6 10 16 16 13 16 23 23 19 16
3 10 6 3 10 10 10 6 13 13 13 16 19 16 19 13 10 3 3 6 6 6 6 6 3 3 0 3 3 6 3 6 6 6 16 16 16 16 16 13 23 23 19
3 6 6 6 10 10 6 10 6 3 3 3 6 6 10 10 3 0 0 0 0 0 0 0 0 0 0 0 0 3 3 3 6 6 13 16 16 16 16 16 19 16 23
3 3 6 6 6 10 10 0 6 6 3 3 6 3 6 3 0 0 0 0 0 0 0 0 0 0 0 0 0 3 3 3 3 3 13 16 13 13 16 16 13 10 13
3 6 6 3 3 3 0 0 3 3 3 0 3 3 3 0 0 0 0 0 0 0 0 0 3 0 0 0 3 3 3 3 3 3 16 13 13 13 13 16 10 10 10
3 0 3 3 3 0 0 0 0 3 3 3 3 3 3 0 0 0 0 0 0 0 0 0 0 3 0 0 3 3 3 3 3 6 13 10 10 13 10 10 6 10 10
3 0 3 3 3 0 0 0 0 3 3 3 3 3 3 3 0 0 0 0 0 0 0 0 0 0 3 6 6 3 3 3 3 3 6 10 6 13 10 6 6 6 6
3 3 3 3 0 0 0 0 0 0 3 3 3 3 3 3 3 3 0 0 0 0 0 0 0 0 3 6 3 3 3 3 3 3 3 6 6 10 6 3 3 6 3
3 3 0 0 3 0 0 0 0 0 0 0 3 3 3 3 3 0 3 3 0 0 0 0 0 3 3 3 3 3 3 3 3 3 0 0 6 0 0 0 0 3 3
3 3 0 0 3 3 3 0 0 0 0 3 0 0 0 3 3 0 3 3 0 0 0 0 3 3 0 0 0 0 0 0 0 0 0 0 0 0 0 0 0 6 6
6 3 3 0 3 3 3 3 3 0 0 0 0 0 0 0 3 3 3 0 0 0 3 3 3 3 0 3 0 0 0 3 3 3 0 0 0 0 0 0 3 3 0
6 6 3 3 3 3 3 3 3 3 3 0 0 0 0 0 0 0 0 0 0 0 6 6 6 0 0 0 0 0 0 0 0 0 0 0 0 0 0 0 0 3 3
6 6 3 3 3 3 3 3 3 3 3 3 3 3 0 0 0 0 0 0 0 0 0 0 0 3 0 0 0 0 0 0 0 0 0 0 0 0 0 0 0 0 0
6 6 6 3 3 3 3 3 3 3 3 3 3 3 3 0 0 0 0 0 0 0 0 0 0 0 0 0 0 0 0 0 0 0 0 0 0 0 0 0 0 0 3
6 6 6 6 3 3 6 6 6 6 3 6 3 3 3 0 0 0 0 0 0 0 0 0 0 0 0 0 0 0 0 0 0 0 0 0 0 0 0 0 0 0 3
6 6 6 6 3 3 3 3 3 3 3 6 6 3 0 0 0 0 0 0 0 0 0 0 0 0 0 0 0 0 0 0 0 0 0 0 0 0 0 0 0 0 0
10 6 6 6 3 3 3 3 3 3 3 6 6 3 3 3 0 0 0 0 0 0 0 0 0 0 0 0 3 3 3 0 0 0 0 0 0 0 0 0 0 0 0
Height
5871 5869 5866 5863 5862 5865 5868 5869 5869 5870 5870 5870 5871 5871 5871 5871 5872 5872 5872 5872 5873 5873 5873 5873 5873 5873 5872 5871 5871 5872 5873 5873 5873 5873 5873 5873 5873 5873 5873 5873 5873 5873 5873
5871 5868 5865 5859 5859 5863 5867 5868 5869 5869 5869 5870 5870 5871 5871 5871 5872 5872 5872 5872 5872 5873 5873 5873 5873 5872 5872 5872 5872 5872 5872 5872 5871 5872 5872 5872 5872 5872 5872 5872 5872 5872 5872
5871 5869 5866 5862 5862 5864 5866 5867 5867 5867 5868 5869 5870 5870 5870 5871 5871 5871 5871 5872 5872 5872 5872 5872 5872 5872 5872 5871 5871 5871 5871 5870 5871 5871 5870 5871 5871 5871 5871 5871 5870 5870 5870
5870 5870 5868 5866 5866 5866 5866 5865 5863 5863 5865 5867 5869 5869 5869 5870 5870 5871 5871 5871 5871 5871 5871 5871 5871 5871 5871 5871 5870 5870 5870 5870 5870 5869 5869 5869 5869 5869 5869 5869 5869 5869 5869
5870 5870 5869 5868 5868 5867 5866 5863 5859 5859 5862 5866 5868 5869 5869 5869 5869 5870 5870 5870 5870 5870 5870 5870 5870 5870 5870 5870 5869 5869 5869 5869 5869 5868 5868 5867 5866 5867 5867 5867 5867 5867 5867
5870 5870 5869 5869 5868 5868 5866 5864 5861 5861 5863 5866 5867 5868 5868 5868 5869 5869 5869 5869 5869 5869 5869 5869 5869 5869 5869 5869 5868 5868 5868 5868 5867 5867 5866 5865 5864 5865 5865 5866 5866 5866 5866
5869 5869 5869 5869 5868 5868 5867 5866 5864 5864 5865 5866 5867 5868 5868 5868 5868 5868 5868 5868 5868 5868 5868 5868 5868 5868 5867 5867 5867 5867 5866 5866 5866 5865 5865 5864 5863 5863 5864 5864 5864 5864 5864
5868 5868 5869 5868 5868 5868 5867 5867 5866 5866 5866 5867 5867 5867 5867 5867 5867 5867 5867 5867 5867 5867 5867 5867 5866 5866 5866 5865 5865 5865 5865 5864 5864 5863 5863 5863 5862 5862 5862 5862 5862 5862 5862
5868 5868 5868 5868 5868 5867 5867 5867 5866 5866 5866 5866 5866 5866 5866 5866 5866 5866 5866 5866 5866 5866 5865 5865 5864 5864 5864 5863 5863 5863 5863 5862 5862 5862 5861 5861 5860 5860 5860 5860 5860 5860 5860
5867 5867 5867 5867 5866 5866 5866 5866 5866 5866 5865 5865 5865 5865 5865 5865 5864 5864 5864 5864 5864 5864 5863 5863 5863 5862 5862 5861 5861 5861 5861 5861 5860 5859 5859 5859 5858 5858 5858 5858 5858 5858 5858
5865 5865 5866 5865 5865 5865 5865 5865 5865 5865 5864 5864 5864 5864 5864 5864 5863 5863 5863 5863 5862 5862 5861 5861 5861 5860 5860 5859 5859 5859 5859 5858 5858 5857 5857 5857 5856 5856 5856 5856 5856 5855 5855
5864 5864 5864 5864 5864 5864 5864 5864 5864 5863 5863 5863 5863 5863 5862 5862 5862 5862 5861 5861 5861 5860 5860 5859 5859 5858 5858 5858 5857 5857 5857 5856 5856 5855 5855 5855 5854 5854 5854 5854 5853 5853 5853
5863 5863 5863 5863 5863 5863 5863 5863 5863 5862 5862 5862 5861 5861 5861 5861 5860 5860 5860 5859 5859 5858 5858 5858 5857 5857 5856 5856 5855 5855 5855 5854 5854 5853 5853 5852 5852 5852 5851 5851 5851 5850 5850
5861 5861 5861 5861 5861 5861 5861 5861 5861 5861 5861 5860 5860 5860 5859 5859 5859 5858 5858 5857 5857 5856 5856 5856 5855 5855 5854 5854 5853 5853 5852 5852 5851 5851 5850 5850 5850 5849 5849 5848 5848 5848 5847
5860 5860 5860 5860 5860 5860 5860 5860 5860 5859 5859 5859 5858 5858 5857 5857 5856 5856 5855 5855 5855 5854 5854 5853 5853 5853 5852 5852 5851 5851 5850 5849 5849 5848 5848 5848 5847 5847 5846 5846 5845 5845 5844
5859 5859 5859 5859 5859 5859 5858 5858 5858 5857 5857 5857 5856 5856 5855 5855 5854 5854 5853 5852 5852 5852 5851 5851 5851 5850 5850 5849 5849 5848 5848 5847 5846 5846 5846 5845 5845 5844 5843 5843 5842 5842 5841
5857 5857 5857 5857 5857 5857 5857 5856 5856 5855 5855 5854 5854 5853 5853 5852 5852 5851 5851 5850 5849 5849 5849 5848 5848 5848 5847 5847 5846 5846 5845 5845 5844 5843 5843 5842 5842 5841 5841 5840 5840 5839 5838
5856 5856 5856 5856 5856 5855 5855 5855 5854 5854 5853 5852 5852 5851 5851 5850 5849 5848 5848 5847 5846 5846 5846 5845 5845 5845 5844 5844 5844 5843 5843 5842 5841 5841 5840 5839 5839 5838 5838 5837 5836 5836 5835
5854 5854 5854 5854 5854 5853 5853 5853 5852 5851 5851 5850 5850 5849 5848 5847 5846 5845 5845 5844 5843 5842 5842 5842 5841 5841 5841 5841 5840 5840 5840 5839 5838 5838 5837 5836 5836 5835 5834 5833 5833 5832 5831
5852 5852 5851 5851 5851 5851 5851 5850 5850 5849 5848 5848 5847 5846 5845 5844 5843 5842 5841 5841 5840 5839 5838 5838 5837 5837 5837 5837 5837 5837 5836 5836 5835 5835 5834 5833 5832 5831 5830 5829 5829 5828 5827
5849 5849 5849 5849 5849 5848 5848 5848 5847 5847 5846 5845 5844 5843 5842 5841 5840 5839 5838 5837 5836 5835 5834 5834 5833 5833 5833 5833 5833 5833 5833 5832 5832 5831 5830 5829 5828 5827 5826 5825 5824 5824 5823
5847 5847 5846 5846 5846 5846 5845 5845 5844 5844 5843 5842 5841 5840 5839 5838 5837 5836 5835 5834 5833 5832 5831 5830 5829 5829 5829 5829 5830 5830 5829 5829 5828 5827 5826 5825 5824 5823 5821 5820 5819 5819 5818
5844 5844 5843 5843 5843 5843 5842 5842 5842 5841 5840 5839 5838 5837 5836 5835 5833 5832 5831 5830 5829 5828 5828 5827 5826 5825 5825 5825 5825 5826 5825 5825 5824 5823 5822 5821 5819 5818 5817 5815 5815 5814 5814
5841 5841 5840 5840 5839 5839 5839 5839 5838 5838 5837 5836 5835 5834 5832 5831 5830 5829 5828 5827 5826 5825 5824 5823 5822 5821 5821 5821 5821 5821 5821 5820 5820 5819 5818 5816 5815 5814 5812 5811 5811 5810 5810
5838 5837 5837 5837 5836 5836 5836 5835 5835 5834 5833 5832 5831 5830 5829 5827 5826 5825 5824 5823 5822 5821 5820 5819 5818 5817 5817 5817 5817 5816 5816 5815 5815 5814 5813 5812 5810 5809 5808 5807 5807 5806 5805
5834 5834 5834 5833 5833 5832 5832 5832 5831 5830 5829 5828 5827 5826 5825 5824 5823 5821 5820 5819 5818 5817 5816 5815 5814 5813 5813 5812 5811 5811 5811 5810 5810 5809 5808 5807 5806 5805 5804 5803 5802 5801 5801
Wind_Speed
0 1 2 1 2 3 3 2 3 3 4 4 3 4 5 5 5 5 4 4 4 4 4 3 3 3 3 3 4 5 5 5 6 6 6 7 7 7 7 7 7 8 8
1 1 2 0 3 4 3 3 3 4 4 4 4 4 4 5 5 5 5 4 5 5 5 4 4 4 3 3 4 4 5 6 7 7 7 6 7 7 7 7 8 8 8
2 1 1 1 3 3 3 2 3 4 4 4 4 4 4 5 6 6 5 5 5 5 6 6 5 5 5 5 5 5 5 6 7 8 8 7 8 8 8 7 8 8 8
2 1 0 2 3 2 2 2 3 5 5 5 5 5 5 5 6 6 6 5 5 5 6 6 6 6 6 6 7 7 7 7 7 8 8 9 9 9 9 8 8 8 8
3 2 2 2 2 2 2 2 3 4 5 6 5 5 5 6 6 6 6 5 5 6 6 7 7 7 8 8 8 8 8 8 8 8 8 9 9 10 10 9 8 8 9
3 3 3 3 3 3 2 2 2 3 5 6 5 5 6 6 6 6 6 6 6 7 7 7 7 8 9 9 9 9 8 8 8 8 9 8 8 9 9 9 9 9 9
4 4 4 3 4 4 3 2 2 3 4 5 5 5 6 7 6 6 6 7 8 7 7 8 8 8 8 9 9 9 9 9 9 9 9 8 8 9 9 10 9 9 9
5 4 4 4 4 4 4 4 3 3 4 5 5 5 6 7 7 6 7 8 8 8 8 9 9 9 9 10 10 9 9 9 10 9 10 10 9 10 10 11 11 10 10
5 5 5 5 5 5 4 5 5 5 5 5 6 6 7 7 7 7 7 8 8 8 9 9 9 9 10 10 10 9 9 9 10 10 10 10 10 10 10 11 11 11 11
6 6 6 6 6 6 5 5 6 6 6 6 7 7 8 8 7 7 8 8 9 9 9 9 9 9 10 10 9 9 9 9 9 9 9 10 10 10 10 11 11 12 12
6 7 7 7 7 7 7 6 6 7 7 7 7 8 8 8 8 9 9 9 10 9 9 9 10 10 10 9 10 10 10 10 10 10 10 10 10 11 11 11 12 12 13
6 7 7 7 7 7 7 7 7 7 7 7 7 8 8 9 9 10 10 10 10 10 9 10 10 10 10 10 10 10 10 10 10 11 11 10 10 11 11 11 12 12 13
6 7 7 7 7 7 7 7 8 7 8 8 8 9 9 9 10 10 10 11 11 11 11 11 11 11 11 11 10 11 11 11 11 11 11 11 11 11 11 12 12 13 13
6 6 6 6 7 7 7 7 8 8 8 9 9 10 10 10 10 10 11 11 11 11 11 11 11 11 10 10 10 11 11 11 11 11 12 12 12 12 13 13 14 14 14
6 6 6 6 7 7 8 8 8 9 9 10 10 10 10 10 11 11 11 11 11 11 11 12 12 11 11 11 11 11 11 11 11 12 12 12 13 13 13 13 13 13 14
7 6 6 6 6 7 8 8 8 8 9 9 9 9 10 10 11 11 12 12 12 12 12 12 12 12 12 11 11 11 11 11 11 12 13 13 13 13 13 13 14 14 14
8 8 7 7 7 7 7 8 8 8 9 9 10 10 10 10 11 12 12 12 12 12 12 12 12 12 12 12 12 11 11 11 12 12 12 13 13 13 14 14 14 14 14
8 9 9 9 9 8 8 8 8 8 9 9 10 10 10 11 11 11 11 11 12 12 12 13 13 13 13 13 13 12 12 12 12 13 13 13 14 14 15 15 14 14 14
9 10 10 10 10 9 9 9 9 9 10 10 10 10 10 10 11 11 11 11 12 13 13 13 13 14 13 13 13 13 13 13 13 14 14 14 15 15 16 16 16 15 15
10 10 11 11 11 10 10 10 10 10 10 11 11 11 11 11 11 11 11 12 12 13 14 14 14 14 14 14 14 14 14 14 15 14 14 14 15 16 17 17 17 16 16
11 11 11 11 11 11 11 10 10 10 10 11 11 11 11 11 12 12 12 12 12 13 14 14 14 14 15 15 15 15 15 15 15 15 15 15 16 17 17 17 17 17 17
11 11 11 11 12 11 11 11 11 11 10 11 11 12 12 12 13 13 13 13 13 13 13 14 15 15 15 15 15 15 15 16 16 16 16 16 17 17 18 18 18 17 17
11 12 12 12 12 12 11 11 11 11 11 11 12 12 12 13 14 14 14 14 14 14 14 14 15 15 15 15 15 16 16 16 16 17 17 18 17 17 17 17 17 17 16
12 12 12 12 12 12 12 11 11 12 11 12 12 13 13 14 14 14 15 15 14 14 15 15 15 16 16 16 16 16 17 17 17 17 18 19 18 17 17 16 16 17 17
13 13 13 12 12 12 12 12 12 12 12 13 14 14 13 14 14 14 15 15 15 15 15 15 16 16 16 16 16 17 17 18 18 18 19 19 19 18 17 17 17 16 17
14 13 13 13 13 13 13 13 13 13 13 14 14 14 14 14 14 15 15 16 16 16 16 16 16 17 17 18 18 18 18 19 19 20 20 19 19 18 17 17 17 17 18
Wind_Direction
258 340 331 254 211 188 175 180 185 177 181 173 167 171 175 180 183 186 189 196 201 208 213 223 243 244 242 236 232 233 238 248 247 252 254 255 255 254 256 257 255 259 261
258 332 352 209 160 170 173 183 194 196 193 184 185 185 183 193 201 204 206 210 216 223 231 238 244 244 235 238 235 238 246 247 248 256 255 253 253 251 254 258 256 258 262
246 298 36 119 148 164 180 205 216 207 201 200 207 208 201 202 212 214 214 219 224 231 237 241 244 246 248 247 244 248 251 246 250 252 250 255 253 253 256 259 258 260 262
225 228 194 165 172 182 214 252 248 229 215 205 209 218 219 214 216 216 221 225 229 237 242 243 247 251 253 256 253 256 260 261 265 260 258 258 258 257 259 261 264 265 263
220 226 234 227 217 228 243 262 252 226 209 207 209 221 226 223 222 221 219 226 234 242 247 249 251 253 256 257 256 261 266 267 264 261 259 263 259 258 257 257 265 270 269
235 238 244 242 249 252 248 258 242 212 207 213 218 229 231 232 232 227 229 236 244 249 251 254 255 256 256 255 256 260 266 267 267 264 263 268 263 259 256 258 264 268 271
237 242 246 245 249 253 256 257 245 226 221 218 224 231 238 242 245 243 238 247 253 255 255 258 260 260 257 256 259 263 265 265 265 266 266 269 262 258 258 258 261 261 264
239 240 242 241 245 251 253 246 247 237 235 231 230 235 244 248 251 252 248 250 252 254 258 259 261 263 261 259 262 264 264 265 265 268 267 267 263 257 256 258 257 258 261
242 242 242 242 243 248 248 246 244 245 246 245 240 241 246 251 248 246 252 252 252 257 259 261 264 266 265 262 262 261 262 264 266 266 264 261 259 259 258 259 257 256 261
243 244 245 245 245 245 245 244 247 249 250 251 250 250 250 250 251 254 257 255 255 258 259 259 262 269 268 264 261 260 261 262 266 265 262 259 259 260 259 258 257 259 263
245 245 244 244 243 243 245 247 251 251 252 253 254 255 257 257 258 257 258 260 259 258 262 266 270 270 270 265 262 262 262 263 266 266 265 264 262 263 263 260 260 263 264
249 249 246 245 241 243 247 251 255 256 255 255 254 256 259 261 262 264 265 265 266 267 269 269 271 272 273 273 272 268 267 270 270 272 272 270 267 265 263 262 264 266 266
252 253 251 249 245 245 248 252 257 260 257 255 258 259 262 263 264 265 267 267 268 270 271 273 274 274 277 277 276 275 273 273 273 273 275 273 272 270 267 266 267 273 273
250 249 248 252 251 250 251 254 257 259 261 263 263 264 265 268 267 267 268 269 270 272 272 274 276 277 280 281 282 280 277 275 274 273 272 272 275 274 273 275 274 275 275
256 249 244 251 253 251 252 256 258 259 265 269 270 267 267 268 269 271 273 274 272 273 272 272 274 274 276 279 279 277 277 278 275 273 273 273 274 274 273 275 275 276 275
255 255 251 251 254 255 258 261 263 265 268 269 270 269 269 271 272 273 275 275 274 274 272 271 272 273 273 275 277 279 281 282 279 276 276 276 276 275 275 276 277 277 275
253 253 255 255 256 258 261 265 270 274 274 272 273 274 275 274 274 274 275 275 274 274 272 271 272 271 273 275 274 274 276 277 278 277 276 275 273 272 272 274 277 277 277
254 253 255 256 258 260 264 267 270 274 275 274 278 278 277 278 278 276 276 276 277 277 275 274 273 273 274 274 273 271 272 275 276 277 277 275 275 274 273 274 276 278 279
258 256 256 257 259 260 261 264 268 271 271 273 279 279 280 279 277 280 280 282 281 279 278 276 274 272 271 272 272 272 272 275 277 277 276 276 276 276 274 274 275 277 279
259 258 258 258 260 259 260 264 266 269 272 274 275 276 280 280 280 283 281 281 280 279 277 276 274 272 269 269 271 272 273 274 276 277 279 279 277 276 275 274 276 277 277
260 261 261 259 259 259 262 265 267 271 275 276 277 278 280 280 281 282 280 279 280 280 279 275 272 271 269 268 269 271 273 274 274 276 279 280 279 277 276 277 278 277 277
264 264 265 264 259 260 264 269 270 272 276 280 281 283 285 284 282 282 281 281 281 282 281 278 273 268 267 266 267 271 273 274 274 277 279 280 280 278 278 277 277 277 276
264 265 265 264 262 263 267 269 272 273 276 280 282 284 287 286 284 282 279 282 282 282 281 280 277 271 267 266 266 268 271 274 277 278 280 280 280 279 278 276 275 276 276
266 266 265 264 264 265 267 270 274 277 280 282 284 285 286 286 285 284 282 283 283 282 283 281 277 273 268 265 266 268 270 272 275 278 280 282 281 279 278 277 276 275 274
269 268 266 265 264 266 269 272 275 279 281 283 284 285 285 284 284 285 286 283 283 282 283 285 281 275 271 266 266 267 269 272 274 277 279 279 279 278 278 277 277 275 274
267 268 267 269 269 268 270 272 275 277 280 284 285 284 283 282 282 284 285 284 283 280 279 281 281 277 272 270 268 268 270 271 273 275 276 276 275 275 276 278 278 275 272